Вернуться в каталог

Sitro-AIS-58

АктивенСвязьSSO
NORAD 67258·PAYLOAD·🇷🇺 Russia

Запущен Dec 28, 2025 с Vostochny Cosmodrome

Loading…

Ближайшие Пролёты (ближайшие 24 часа)

TLE

СвежийSource: Space-Track

Эпоха: Sep 14, 2026, 10:41 UTC

1 67258U 25313L   26257.44529721  .00006759  00000-0  27669-3 0  9998
2 67258  97.3855 330.7536 0015967  53.9974 306.2741 15.24517887 39541

Отслеживайте Sitro-AIS-58 в реальном времени с AllMySat

Download on the App Store